Location: Zagreb
(45.8000°N, 16.0000°E)
Time: 00:54:19
(UTC+01:00)

Transit 2A Rocket - Pass Details

Date: 06 October 2020
Orbit: 586 x 916 km, 66.7° (Epoch: 28 October)

Event Time Altitude Azimuth Distance (km) Brightness Sun altitude
Rises 23:25:22 0° 330° (NNW) 3,433 9.1 -46.3°
Reaches altitude 10° 23:28:09 10° 339° (NNW) 2,445 8.1 -46.5°
Enters shadow 23:28:16 11° 339° (NNW) 2,406 8.1 -46.5°
Maximum altitude 23:33:16 35° 44° (NE) 1,250 - -46.9°
Drops below altitude 10° 23:37:57 10° 110° (ESE) 2,231 - -47.3°
Sets 23:40:23 0° 120° (ESE) 3,093 - -47.5°
